www.pogodaiklimat.ru

Погода и климат >> Архив погоды >> Ирак >> Badrah


ПОГОДА в Badrah

  • Прогноз погоды в Badrah
  • Монитор погоды в Badrah
  • Климат города

АРХИВ ПОГОДЫ в Badrah

Время (UTC), дата Ветер
(напр.,м/с)
 
Видим.   Явления Облачность Т
(С)
Тd
(С)
f
(%)
Тe
(С)
Тes
(С)
Комфортность P
(гПа)
Po
(гПа)
Тmin
(С)
Tmax
(С)
R
(мм)
R24
(мм)
S
(см)
03 11.01 В 2 10 км ясно +7.5 -1.3 54 +6 +6 1024.9 1025.0
06 11.01 В 1 10 км 9/0
[Cs]
+10.1 +1.7 56 +10 +13 1026.9 1027.0 +6.0
09 11.01 В 2 10 км 9/0
[Cs]
+18.5 -0.2 28 +19 +25 1025.6 1026.0
18 11.01 ЮВ 1 10 км ясно +10.3 +3.6 63 +10 +10 1024.8 1025.0 +20.1
21 11.01 В 1 10 км ясно +8.4 +0.9 59 +8 +8 1024.9 1025.0
00 12.01 В 1 10 км ясно +10.2 -1.8 43 +10 +10 1023.8 1024.0
09 12.01 ЮВ 3 10 км ясно +19.4 -3.7 21 +20 +26 1023.6 1024.0
12 12.01 ЮВ 3 10 км ясно +21.0 -5.1 17 +21 +23 комфорт 1021.6 1022.0
15 12.01 ЮВ 1 10 км ясно +16.8 -2.3 27 +18 +18 1020.6 1021.0
18 12.01 ЮВ 2 10 км ясно +15.0 -1.0 33 +15 +15 1022.7 1023.0 +21.4
21 12.01 Ю 3 10 км ясно +14.8 -2.2 31 +14 +14 1021.7 1022.0
00 13.01 штиль 0 10 км ясно +11.4 -1.0 42 +11 +11 1021.8 1022.0
03 13.01 штиль 0 10 км ясно +10.8 -2.3 40 +11 +11 1020.8 1021.0
06 13.01 ЮВ 2 10 км ясно +16.4 -3.2 26 +17 +20 1021.7 1022.0 +10.8
09 13.01 Ю 2 10 км ясно +22.4 -3.5 17 +21 +29 комфорт 1020.5 1021.0
12 13.01 ЮВ 2 10 км ясно +24.2 -3.2 16 +22 +25 комфорт 1018.4 1018.0
15 13.01 Ю 1 10 км 1/0
[Ci fib]
+17.0 +6.9 51 +18 +18 1018.6 1019.0
18 13.01 В 2 10 км ясно +14.2 -1.0 35 +14 +14 1018.7 1019.0 +24.6
00 14.01 ЮВ 2 10 км ясно +11.8 -1.8 39 +11 +11 1016.7 1017.0
03 14.01 ЮВ 3 10 км ясно +12.4 -4.7 30 +11 +11 1016.7 1017.0
09 14.01 ЮВ 7 6000 м пыль ясно +22.9 -6.9 13 +21 +23 комфорт 1014.5 1015.0
12 14.01 ЮВ 10 6000 м пыльный позёмок ясно +24.2 -6.4 13 +22 +22 комфорт 1011.4 1011.0
15 14.01 ЮВ 7 8000 м пыль ясно +20.8 -5.1 17 +20 +20 1012.5 1013.0
18 14.01 Ю 6 6000 м пыль ясно +17.8 -3.2 24 +17 +17 1015.6 1016.0 +24.4
21 14.01 С 4 10 км пыль ясно +14.7 -2.8 30 +14 +14 1017.7 1018.0
03 15.01 С 2 6000 м пыль ясно +8.6 -2.1 47 +7 +7 1018.8 1019.0
06 15.01 С 3 6000 м пыль ясно +9.7 -3.4 40 +8 +11 1020.8 1021.0 +6.0
09 15.01 СЗ 3 5000 м пыль ясно +18.4 +2.1 34 +19 +25 1020.6 1021.0
12 15.01 СЗ 3 6000 м пыль 1/1 900 м
[Cu med, cong]
+19.2 +2.2 32 +20 +22 1019.6 1020.0
15 15.01 С 3 10 км ясно +15.7 +4.3 47 +15 +15 1020.7 1021.0
21 15.01 С 3 10 км ясно +11.2 +1.7 52 +10 +10 1022.8 1023.0
00 16.01 С 1 10 км ясно +8.8 +0.8 57 +9 +9 1021.9 1022.0
06 16.01 СЗ 2 7000 м пыль ясно +8.4 -0.3 54 +7 +10 1023.9 1024.0 +5.0
09 16.01 С 3 7000 м пыль ясно +17.0 +1.1 34 +17 +23 1022.7 1023.0
12 16.01 С 2 8000 м пыль 3/0
[Ci fib]
+18.6 +1.8 32 +19 +22 1021.6 1022.0
15 16.01 С 1 10 км 1/0
[Ci fib]
+15.6 +2.0 40 +16 +16 1021.7 1022.0
18 16.01 С 1 10 км ясно +11.4 +0.7 48 +12 +12 1021.8 1022.0 +19.0
21 16.01 штиль 0 10 км ясно +8.2 0.0 56 +8 +8 1020.9 1021.0
00 17.01 штиль 0 10 км ясно +6.4 -1.5 57 +6 +6 1019.9 1020.0
03 17.01 штиль 0 10 км ясно +6.4 -1.1 59 +6 +6 1018.9 1019.0
06 17.01 СЗ 1 7000 м пыль 9/0
[Cs]
+9.2 +0.1 53 +9 +12 1018.8 1019.0 +6.0
09 17.01 СЗ 2 7000 м пыль 10/0
[Cs]
+17.0 +3.0 39 +17 +24 1017.6 1018.0
12 17.01 СЗ 2 7000 м пыль 9/0
[Cs]
+17.4 +1.1 33 +18 +20 1015.6 1016.0
15 17.01 СЗ 1 7000 м пыль 8/0
[Cs]
+13.5 +5.1 57 +14 +14 1016.7 1017.0
18 17.01 С 1 8000 м пыль ясно +9.5 +1.5 57 +9 +9 1016.8 1017.0 +17.8

 

Местоположение метеостанции Badrah (Ирак): широта 33.10 долгота 45.95 высота над уровнем моря 64 м.

В архиве по умолчанию представлена погода в Badrah за последнюю неделю. Архивные данные за месяц целиком и за предыдущие месяцы, начиная с января 2011 года, Вы можете получить, выбрав интересующий диапазон дат из раскрывающегося списка и нажав кнопку "Ввод!".

Внимание! Время в таблицах - всемирное. Для получения местного времени необходимо прибавить поправку, которая в Badrah равна 3 ч.

Смотрите также архив погоды в соседних городах и на ближайших метеорологических станциях:

Погода в Ubaydah Bin Al Jarrah (Ирак) (70 км)
Погода в Ilam (Иран) (74 км)
Погода в Azizyah (Ирак) (84 км)
Погода в Ali Al-Gharbi (Ирак) (100 км)
Погода в Kut-Al-Hai (Ирак) (104 км)
Погода в Ayn Al-Tamar (Ирак) (125 км)
Погода в Khanaqin (Ирак) (142 км)
Погода в Rifai (Ирак) (154 км)
Погода в Diwaniya (Ирак) (154 км)
Погода в Al-Khalis (Ирак) (155 км)

Пояснения к столбцам:

Ветер - указаны скорость ветра в м/с - средняя за 10 мин, порывы в срок и между сроками (в фигурных скобках) и направление, откуда дует ветер: С - северный, СВ - северо-восточный, В - восточный, ЮВ - юго-восточный, Ю - южный, ЮЗ - юго-западный, З - западный, СЗ - северо-западный.
Видимость - горизонтальная дальность видимости в метрах или километрах. При видимости от 1 до 10 км при отсутствии осадков обычно наблюдается дымка, при ухудшении видимости до 1 км и менее - туман. В сухую погоду видимость может ухудшаться дымом, пылью или мглою.
Явления - указаны атмосферные явления, наблюдавшиеся в срок или в последний час перед сроком; фигурными скобками обозначены явления, наблюдавшиеся между сроками (за 1-3 часа до срока); квадратными скобками обозначены град или гололедные отложения с указанием их диаметра в мм.
Облачность - указаны через наклонную черту общая и нижняя облачность в баллах и высота нижней границы облаков в метрах; квадратными скобками обозначены формы облаков: Ci - перистые, Cs - перисто-слоистые, Cc - перисто-кучевые, Ac - высококучевые, As - высокослоистые, Sc - слоисто-кучевые, Ns - слоисто-дождевые, Cu - кучевые, Cb - кучево-дождевые. Подробнее классификацию облаков см. в Атласе облаков (PDF).
T - Температура воздуха - температура, измеренная на высоте 2 м над землей.
Td - Температура точки росы - температура, при понижении до которой содержащийся в воздухе водяной пар достигнет насыщения.
f - Относительная влажность воздуха - влажноcть воздуха, измеренная на высоте 2 м над землей.
Te - Эффективная температура - температура, которую ощущает одетый по сезону человек в тени. Характеристика душности погоды. При расчете учитывается влияние влажности воздуха и скорости ветра на теплоощущения человека.
Tes - Эффективная температура на солнце - температура, которую ощущает человек, с поправкой на солнечный нагрев. Характеристика знойности погоды. Зависит от высоты солнца над горизонтом, облачности и скорости ветра. Ночью, в пасмурную погоду, а также при ветре 12 м/с и более поправка равна нулю.
P - Атмосферное давление - приведенное к уровню моря атмосферное давление.
Po - Атмосферное давление - измеренное на уровне метеостанции атмосферное давление.
Tmin - Минимальная температура - минимум температуры воздуха на высоте 2 м над землей.
Tmax - Максимальная температура - максимум температуры воздуха на высоте 2 м над землей.
R - Количество осадков - Количество выпавших осадков за период времени, мм. При наведении курсора мыши на число - период времени, за который выпало указанное количество осадков.
R24 - Количество осадков - Количество выпавших осадков за 24 часа, мм.
S - Снежный покров - Высота снежного покрова, см. При наведении курсора мыши на число - состояние снежного покрова и степень покрытия местности в баллах.